DELTA 1 DEB, 5443

Orbit data source: Space-Track

DELTA 1 DEB, 5443 is space debris in SSO originally from a launch on Fri, 10 Nov 1967 UTC launched from the Air Force Western Test Range (AFWTR). Debris objects in space refer to the collection of defunct objects orbiting the Earth. Examples of debris include non-operational satellites, rocket bodies, and fragments generated from explosions, collisions, or faulty payload assembly.

Loading next visibility...
Identifier
5443, 1967-114E
Orbit
SSO
Country
Flag of USUS
Related business
Manufacturer
Unknown
Mission
Spacecraft
Bus & Motor
Unknown
Mass
Unknown
Launch date (UTC)
1967-11-10 (58 years ago)
Launch vehicle
Unknown
Launch site
Air Force Western Test Range (AFWTR)
Object type
Payload
Rocket body
Debris
Shape & HBR
Unknown shape, 0.1 m
Radar Cross Section
Small (<0.1 m²)

Expand to show TLE details & history
Last TLE update: 1 day ago

TLE from 1 day ago
0 DELTA 1 DEB
1 05443U 67114E   26035.33294544 -.00000032  00000-0  68326-4 0  9990
2 05443 101.3965 354.4274 0061888 287.2697 232.4862 12.56806387670561
Epoch: 2026-02-04T07:59Z
TLE epoch observation values (Epoch: 2026-02-04T07:59:26.486Z)
Latitude
20.38189°
Longitude
-75.66012°
Altitude
1,468.038 km
Speed
7.117 km/s
True Right ascension
11h 54m 48s
True Declination
20° 16' 48"
Sunlit
Object was in full shadow at epoch
Visualization orbit readout
Latitude
Unknown
Longitude
Unknown
Altitude
Unknown
Speed
Unknown
Apparent Right ascension
Unknown
Apparent Declination
Unknown
Sunlit
N/A
Visualization observer readout
Local Sidereal Time
16:47:03
Azimuth
Unknown
Elevation
Unknown
Doppler factor
Unknown
Orbital elements
Apogee altitude
1,482.017 km
Perigee altitude
1,385.326 km
Semi-major axis
7,811.808 km
Eccentricity
0.00619
Inclination
101.3965°
RAAN
354.4274°
Arg. of periapsis
287.2697°
True anomaly
231.92632°
Mean anomaly
232.4862°
Eccentric anomaly
232.20599°
Mean motion
3.14352 °/min
Orbital period
114.52 mins
BSTAR
0.000068326
Loading maneuver chart data...
Computing Atmospheric mass density...
Loading historical data...
Loading historical data...
Loading historical data...
Loading historical data...
Loading historical data...
Loading historical data...
Loading historical data...
Other satellites on launch #114 in the year 1967 (1967-11-10 UTC)

Documentation

Showing up to 5 results
|